Home   Weather   Güssing   Past weeks

Flag for Austria Past Weather in Güssing, Burgenland, Austria — Yesterday and Last 2 Weeks

Now
52 °F

Cool.


Feels Like: 52 °F
Forecast: 43 / 71 °F
Wind: 1 mph from North

Location: Murska Sobota

Current Time: Sep 27, 2016 at 10:44:57 PM

Latest Report: Sep 27, 2016 at 10:00 PM


Visibility: N/A

Pressure: 30.38 "Hg

Humidity: 90%

Dew Point: 49 °F

Location of GüssingLocation

Past Weather in Güssing — Graph

°F

Güssing Temperature Yesterday

Maximum temperature yesterday: 69 °F (at 4:00 PM)
Minimum temperature yesterday: 45 °F (at 7:00 AM)
Average temperature yesterday: 55 °F

High & Low Weather Summary for the Past Weeks

 TemperatureHumidityPressure
High85 °F (Sep 13, 5:00 PM)99% (Sep 25, 5:00 AM)30.37 "Hg (Sep 25, 5:00 AM)
Low38 °F (Sep 23, 7:00 AM)38% (Sep 25, 4:00 PM)29.75 "Hg (Sep 19, 3:00 PM)
Average61 °F76%30.06 "Hg
* Reported Sep 12 9:00 PM — Sep 27 9:00 PM, Güssing, Weather by CustomWeather, © 2016

Note: Actual official high and low records may vary slightly from our data, if they occured in-between our weather recording intervals... More about our weather records

Advertising

Güssing Weather History for the Previous 24 Hours

Scroll right to see more
 ConditionsComfort  
Time TempWeatherWind HumidityBarometerVisibility
9:00 PM
Tue, Sep 27
54 °FCool.1 mph85%30.37 "HgN/A
8:00 PM55 °FPassing clouds.No wind78%30.34 "Hg6 mi
7:00 PM62 °FCool.1 mph61%30.32 "HgN/A
6:00 PM69 °FMild.2 mph46%30.29 "HgN/A
5:00 PM69 °FMild.1 mph44%30.28 "HgN/A
4:00 PM71 °FMild.2 mph46%30.27 "HgN/A
2:00 PM70 °FScattered clouds.2 mph41%30.27 "Hg6 mi
1:00 PM68 °FMild.2 mph54%30.28 "HgN/A
12:00 PM66 °FMild.1 mph65%30.28 "HgN/A
11:00 AM64 °FMild.1 mph69%30.28 "HgN/A
10:00 AMN/A1 mphN/AN/AN/A
9:00 AM55 °FCool.1 mph86%30.27 "HgN/A
8:00 AM52 °FFog.1 mph95%30.26 "Hg5 mi
7:00 AM50 °FPartly sunny.1 mph95%30.25 "Hg4 mi
6:00 AM51 °FCool.1 mph96%30.24 "HgN/A
5:00 AM50 °FCool.1 mph95%30.23 "HgN/A
4:00 AM51 °FCool.No wind97%30.23 "HgN/A
3:00 AM50 °FCool.1 mph97%30.23 "HgN/A
2:00 AMN/ANo windN/AN/AN/A
1:00 AM50 °FCool.1 mph96%30.23 "HgN/A
12:00 AM51 °FCool.1 mph94%30.23 "HgN/A
11:00 PM
Mon, Sep 26
53 °FCool.1 mph92%30.22 "HgN/A
10:00 PM53 °FCool.1 mph93%30.22 "HgN/A
Weather by CustomWeather, © 2016

See weather overviewHow to use our weather pages